Regional Weather Roundup
Issued by NWS

Home | Current Version | Previous Version | Text Only | Print | Product List | Glossary Off
Versions: 1 2 3 4 5 6 7 8 9 10 11 12 13 14 15 16 17 18 19 20 21 22 23 24 25 26 27 28 29 30 31 32 33 34 35 36 37 38 39 40 41 42 43 44 45 46 47 48 49 50

000
ASUS45 KSLC 310110
RWRUT

UTAH REGIONAL WEATHER ROUNDUP
NATIONAL WEATHER SERVICE SALT LAKE CITY UT
700 PM MDT SUN AUG 30 2015

UTZ001>011-023>025-310200-

NORTHERN UTAH

CITY           SKY/WX    TMP DP  RH WIND       PRES   REMARKS
BRIGHAM CITY   PTSUNNY   85  32  14 SW5       29.91F
HILL AFB       PTSUNNY   83  44  24 N3        29.95F
LOGAN          SUNNY     85  37  18 W10       29.91F
OGDEN          PTSUNNY   85  40  20 NW3       29.92F
PROVO AIRPORT  NOT AVBL
SALT LAKE CITY PTSUNNY   83  43  24 N14       29.91S
VERNAL         MOCLDY    78  46  32 SE6       30.02F
WENDOVER       SUNNY     84  39  20 CALM      29.91F
HEBER CITY     CLOUDY    79  41  25 SW16G23   29.99S
WEST JORDAN    MOSUNNY   81  43  26 NW12      29.96R

$$

UTZ012>022-026-027-310200-

SOUTHERN/CENTRAL UTAH

CITY           SKY/WX    TMP DP  RH WIND       PRES   REMARKS
BLANDING       CLOUDY    68  53  59 S14       30.25R
BRYCE CANYON   CLOUDY    61  50  67 SE13      30.24S
CEDAR CITY     PTSUNNY   83  39  21 SW13      30.03F
DELTA          PTSUNNY   88  36  16 SW16G22   29.93S
HANKSVILLE     CLOUDY    84  50  30 CALM      29.97R
MILFORD        PTSUNNY   87  39  18 SW22      29.97S
MOAB/CYNLANDS  PTCLDY    74  65  73 NW8       29.96S
PRICE          PTSUNNY   76  48  37 CALM      30.06S
ST GEORGE      CLOUDY    97  45  16 W14       29.83S HX  93
KANAB          CLOUDY    70  64  83 NW6       30.13R

$$

REGIONAL REPORTS     COLORADO/ARIZONA

CITY           SKY/WX    TMP DP  RH WIND       PRES   REMARKS
CRAIG, CO      LGT RAIN  62  54  74 W10       30.15S
GRAND JUNCTION LGT RAIN  83  48  29 S12       29.98R
RIFLE          CLOUDY    79  46  31 W6        30.07R
MONTROSE       MOCLDY    76  54  46 E5        30.09F
CORTEZ         MOCLDY    74  51  44 W25G44    30.16R
PAGE, AZ       CLOUDY    77  58  51 W5        30.03R
GRAND CANYON   NOT AVBL
KINGMAN        SUNNY     94  44  17 SW15G26   29.90F HX  90
FLAGSTAFF      PTSUNNY   69  54  58 NE8       30.24R

$$

REGIONAL REPORTS    NEVADA/IDAHO/WYOMING

CITY           SKY/WX    TMP DP  RH WIND       PRES   REMARKS
LAS VEGAS, NV  MOSUNNY   99  36  11 SW15G23   29.73F HX  93
ELY            MOSUNNY   81  28  14 CALM      30.04S
ELKO           SUNNY     81  28  14 NW14      30.01F
POCATELLO, ID  SUNNY     76  36  23 W15       29.98S
BURLEY         SUNNY     74  33  22 W8        29.97S
EVANSTON, WY   PTSUNNY   76  39  26 W16       30.11S
ROCK SPRINGS   CLOUDY    71  50  47 W14       30.11R
KEMMERER       PTSUNNY   72  34  25 W21G30    30.12S

$$



USA.gov is the U.S. government's official web portal to all federal, state and local government web resources and services.